AURA

Last updated on Sat Sep 05 2026 00:02:44 GMT+0000 (Coordinated Universal Time)

1 28376U 04026A 26247.61545234 .00000407 00000+0 91915-4 0 9998 2 28376 98.3494 204.7601 0001641 74.2248 285.9134 14.61428647177813
UTC large
Height (km)
Speed (km/s)
/
Latitude / Longitude
Inclination (degrees)
Orbital Period (minutes)
Azimuth
Elevation
Range (km)
Doppler Factor

Next 0 passes for location: London (51.5072 / 0.1276)

No passes found over London.
AURA